Location: Diamond Bar
(34.0286°N, 117.8103°W)
Time: 01:47:15
(UTC+00:00)

Daily predictions for brighter satellites

Satellite Brightness Start Highest point End
(mag) Time Altitude Azimuth Time Altitude Azimuth Time Altitude Azimuth
Cosmos 1758 4.1 01:35:48 10° SSW 01:39:42 56° W 01:43:37 10° N
Envisat 3.3 01:35:15 10° SE 01:40:04 46° ENE 01:44:55 10° N
YAOGAN 1 3.7 01:37:41 10° ESE 01:41:03 23° ENE 01:44:27 10° NNE
SKYMED 2 3.7 01:37:33 10° NNE 01:41:50 56° E 01:46:04 10° S
ASTRO E2 4.1 01:43:02 10° W 01:46:40 33° SSW 01:50:16 10° SE
NOAA 12 4.1 01:42:22 10° SSE 01:47:36 76° ENE 01:52:53 10° N
Cosmos 1242 Rocket 4.0 01:48:35 10° NNE 01:51:12 18° ENE 01:53:48 10° ESE
Cosmos 1726 Rocket 3.5 01:50:05 10° S 01:54:28 72° E 01:58:51 10° N
Meteor 2-12 Rocket 4.4 01:51:39 10° N 01:57:48 72° E 02:03:56 10° SSE
Cosmos 1939 Rocket 4.4 01:57:39 10° ESE 02:00:13 17° ENE 02:02:50 10° NNE
Okean-O 3.3 01:56:46 10° S 02:01:08 60° W 02:05:30 10° NNW
Cosmos 2285 Rocket 4.0 01:58:07 10° NNW 02:04:32 69° ENE 02:10:53 10° SSE
Cosmos 2058 Rocket 3.0 02:01:02 10° S 02:05:18 59° E 02:09:35 10° NNE
Cosmos 2228 3.3 02:02:04 10° S 02:06:27 75° W 02:10:49 10° N
Lacrosse 5 rocket 2.3 02:06:23 10° NNW 02:09:39 26° NE 02:11:31 18° E
YAOGAN 6 2.5 02:06:56 10° SSE 02:10:34 64° ENE 02:14:12 10° N
IUS-18 SRM-1 4.1 02:02:28 10° WSW 02:10:52 30° S 02:13:24 14° SE
Atlas Centaur 2 4.0 02:05:45 10° W 02:11:04 26° SSW 02:15:28 10° SSE
Cosmos 1908 3.7 02:08:46 10° SSE 02:12:24 39° E 02:16:04 10° NNE
OAO 3 Rocket 3.2 02:07:54 10° W 02:12:51 89° N 02:16:26 19° E
ASTEX 1 3.4 02:09:00 10° N 02:13:58 88° W 02:18:56 10° S
Cosmos 1354 Rocket 3.9 02:09:42 10° NNW 02:14:56 74° ENE 02:20:09 10° SSE
OAO 2 Rocket 3.4 02:10:28 10° W 02:15:46 80° N 02:19:29 20° E
Cosmos 921 Rocket 3.6 02:13:25 10° SSW 02:17:53 64° WNW 02:22:22 10° N
CZ-4 R/B 4.4 02:13:48 10° SSE 02:17:55 90° WSW 02:22:03 10° NNW
CZ-4 R/B 1.4 02:15:28 10° SSE 02:19:34 90° ENE 02:23:46 10° NNW
COSMOS 2406 3.9 02:14:56 10° N 02:20:03 32° ENE 02:23:32 18° ESE
CSL-04 Debris 4.1 02:16:17 10° SSE 02:21:40 71° ENE 02:27:07 10° N
Ariane Rocket 3.7 02:18:17 10° SE 02:22:44 32° ENE 02:27:14 10° N
Cosmos 968 Rocket 3.6 02:18:09 10° NNW 02:23:26 80° WSW 02:28:39 10° SSE
Cosmos 1328 3.9 02:20:10 10° N 02:24:02 48° E 02:27:49 10° SSE
FengYun 1-2 T 4.3 02:18:37 10° SSE 02:24:16 83° WSW 02:29:55 10° NNW
COSMO-SKYMED 1 4.2 02:25:50 10° N 02:29:50 37° WNW 02:33:49 10° SW
Meteor 1-11 4.4 02:26:35 10° N 02:32:12 50° E 02:37:48 10° SSE
CZ-4C R/B 3.4 02:27:04 10° NW 02:34:40 71° WSW 02:43:01 10° SSE
Cosmos 1339 Rocket 4.3 02:30:35 10° S 02:36:35 73° E 02:42:40 10° N
Meteor 2-10 4.2 02:31:37 10° SSW 02:36:45 72° W 02:41:48 10° N
EO 1 Delta rocket 3.7 02:32:07 10° SSE 02:36:54 79° E 02:41:31 10° N
ATLAS 3B R/B 4.5 02:35:39 10° SE 02:36:13 11° SE 02:36:13 11° SE
ADEOS Rocket 4.1 02:34:11 10° NE 02:40:37 29° E 02:46:37 10° SSE
Cosmos 1777 Rocket 4.3 02:43:51 10° N 02:48:46 41° ENE 02:49:19 40° E
H-2A R/B 4.1 02:51:41 13° NNE 02:51:41 13° NNE 02:52:27 10° NNE
CZ-2D R/B 3.1 02:49:06 13° SSE 02:52:30 89° WSW 02:56:22 10° NNW
Cosmos 2278 Rocket 2.2 02:49:33 10° SSW 02:55:13 84° WNW 03:00:56 10° NNE
Cosmos 1727 Rocket 3.8 02:49:27 10° S 02:55:35 71° E 03:01:44 10° N
Cosmos 1605 Rocket 3.8 02:49:32 10° N 02:55:45 82° E 03:01:50 10° S
USA 238 DEB 3.5 02:51:56 10° SSW 02:58:31 70° ESE 03:03:20 20° NE
USA 238 3.5 02:52:03 10° SSW 02:58:38 69° ESE 03:03:21 21° NE
SL-4 R/B 2.0 02:56:47 10° NW 02:59:56 59° NNW 02:59:56 59° NNW
Cosmos 1812 Rocket 3.4 03:03:54 10° S 03:08:16 86° E 03:12:43 10° N
USA 234 3.2 03:10:48 46° ENE 03:12:31 61° SE 03:18:57 10° SSW
Abrixas rocket 4.4 03:12:23 10° W 03:14:13 22° WNW 03:14:13 22° WNW
NOSS 3-2 (A) 3.1 03:19:54 10° SSW 03:25:29 90° NNE 03:26:23 66° NNE
Cosmos 1833 Rocket 3.6 03:40:49 10° NNW 03:44:15 39° NNW 03:44:15 39° NNW
Lacrosse 5 rocket 3.7 03:45:21 10° WNW 03:47:12 21° W 03:47:12 21° W
Cosmos 2082 Rocket 3.9 03:59:17 10° NNW 04:01:26 24° NNW 04:01:26 24° NNW
ADEOS Rocket 4.2 04:18:54 10° N 04:26:12 48° WNW 04:32:59 10° SW
H-2A R/B 4.0 03:54:01 10° WSW 04:36:36 75° SSW 04:36:36 75° SSW
Cosmos 2219 Rocket 4.3 10:41:05 21° ENE 10:41:05 21° ENE 10:43:35 10° NE
COSMOS 2428 4.3 10:55:41 30° ENE 10:55:41 30° ENE 10:59:05 10° NE
COSMOS 2455 4.4 11:03:09 28° NNE 11:03:09 28° NNE 11:05:48 10° NNE
Cosmos 2360 Rocket 4.5 11:14:03 14° N 11:14:03 14° N 11:14:53 10° N
IDEFIX/ARIANE 42P 4.1 11:04:53 10° NNE 11:08:00 32° NE 11:08:00 32° NE
Cosmos 1844 Rocket 2.9 11:36:14 62° SE 11:36:14 62° SE 11:40:55 10° SSE
Aureole 1 Rocket 4.0 11:34:52 70° S 11:35:41 85° ESE 11:41:28 10° NNE
NOSS 3-4 (A) 4.5 11:33:02 24° SSE 11:36:04 40° ESE 11:41:44 10° NE
USA 234 3.7 11:34:26 10° ESE 11:40:47 56° NE 11:44:31 26° NNW
Cosmos 2333 Rocket 2.3 11:47:54 59° NNW 11:47:54 59° NNW 11:52:41 10° NNE
Meteor 1-22 Rocket 4.2 11:43:22 10° N 11:48:41 70° E 11:53:55 10° SSE
Cosmos 1709 Rocket 4.0 11:53:24 57° NW 11:53:24 57° NW 11:59:00 10° N
Cosmos 2278 Rocket 4.4 11:48:28 10° N 11:53:01 24° ENE 11:57:32 10° ESE
